LDE505 SAZS-SAZB

Flight info

Callsign LDE505
Flight time 1h 7m
Altitude 37000
Route ORERA2G ORERA UW34 EKOPA/N0388F230 W34 GENAX
Aircraft B737/M-SDE2E3FGHIRWXY/LB1

Departure

Time 2026-05-08 19:14
Airport Teniente Luis Candelaria International Airport (SAZS)

Arrival

Time 2026-05-08 20:22
Airport Comandante Espora Airport (SAZB)
Time Latitude Longitude Altitude Speed Heading
2026-05-08 18:53 -41.14696 -71.16155 2748 ft 0 kts 58°
2026-05-08 19:04 -41.14699 -71.16160 2748 ft 3 kts 58°
2026-05-08 19:04 -41.14713 -71.16189 2750 ft 4 kts 54°
2026-05-08 19:04 -41.14730 -71.16218 2748 ft 4 kts 49°
2026-05-08 19:05 -41.14749 -71.16243 2748 ft 4 kts 36°
2026-05-08 19:05 -41.14770 -71.16257 2750 ft 4 kts 347°
2026-05-08 19:05 -41.14784 -71.16239 2748 ft 4 kts 298°
2026-05-08 19:05 -41.14796 -71.16208 2748 ft 4 kts 296°
2026-05-08 19:06 -41.14808 -71.16176 2748 ft 4 kts 295°
2026-05-08 19:06 -41.14813 -71.16161 2748 ft 0 kts 295°
2026-05-08 19:07 -41.14810 -71.16170 2748 ft 3 kts 294°
2026-05-08 19:08 -41.14804 -71.16188 2750 ft 4 kts 294°
2026-05-08 19:08 -41.14793 -71.16219 2748 ft 4 kts 294°
2026-05-08 19:08 -41.14790 -71.16262 2751 ft 4 kts 256°
2026-05-08 19:08 -41.14799 -71.16280 2749 ft 3 kts 224°
2026-05-08 19:09 -41.14826 -71.16302 2750 ft 3 kts 208°
2026-05-08 19:09 -41.14840 -71.16311 2750 ft 3 kts 205°
2026-05-08 19:09 -41.14861 -71.16323 2752 ft 3 kts 201°
2026-05-08 19:09 -41.14888 -71.16337 2753 ft 3 kts 200°
2026-05-08 19:10 -41.14899 -71.16347 2753 ft 3 kts 232°
2026-05-08 19:10 -41.14899 -71.16377 2752 ft 3 kts 287°
2026-05-08 19:10 -41.14891 -71.16407 2755 ft 4 kts 290°
2026-05-08 19:10 -41.14882 -71.16439 2753 ft 4 kts 291°
2026-05-08 19:11 -41.14871 -71.16474 2751 ft 5 kts 293°
2026-05-08 19:11 -41.14857 -71.16514 2752 ft 5 kts 295°
2026-05-08 19:11 -41.14840 -71.16560 2750 ft 6 kts 298°
2026-05-08 19:11 -41.14822 -71.16604 2750 ft 5 kts 298°
2026-05-08 19:12 -41.14804 -71.16649 2749 ft 5 kts 295°
2026-05-08 19:12 -41.14789 -71.16694 2751 ft 5 kts 295°
2026-05-08 19:12 -41.14773 -71.16738 2752 ft 5 kts 295°
2026-05-08 19:12 -41.14758 -71.16781 2749 ft 5 kts 295°
2026-05-08 19:13 -41.14741 -71.16829 2750 ft 9 kts 295°
2026-05-08 19:13 -41.14712 -71.16911 2749 ft 10 kts 295°
2026-05-08 19:13 -41.14666 -71.16973 2751 ft 10 kts 330°
2026-05-08 19:13 -41.14677 -71.17030 2752 ft 10 kts 176°
2026-05-08 19:14 -41.14702 -71.16950 2749 ft 17 kts 110°
2026-05-08 19:14 -41.14865 -71.16478 2753 ft 94 kts 115°
2026-05-08 19:14 -41.15225 -71.15416 2797 ft 151 kts 117°
2026-05-08 19:14 -41.15696 -71.14106 3507 ft 157 kts 119°
2026-05-08 19:15 -41.16165 -71.12771 4302 ft 167 kts 119°
2026-05-08 19:15 -41.16694 -71.11264 4767 ft 192 kts 118°
2026-05-08 19:15 -41.17301 -71.09542 5119 ft 218 kts 120°
2026-05-08 19:15 -41.17987 -71.07731 5829 ft 227 kts 118°
2026-05-08 19:16 -41.18410 -71.05581 6367 ft 260 kts 94°
2026-05-08 19:16 -41.17877 -71.03235 7443 ft 271 kts 69°
2026-05-08 19:16 -41.17203 -71.00956 8437 ft 265 kts 90°
2026-05-08 19:16 -41.17258 -70.98510 9276 ft 263 kts 101°
2026-05-08 19:17 -41.17326 -70.96158 10683 ft 252 kts 98°
2026-05-08 19:17 -41.17342 -70.93781 11374 ft 268 kts 93°
2026-05-08 19:17 -41.16804 -70.91215 11565 ft 312 kts 68°
2026-05-08 19:17 -41.15713 -70.88673 12259 ft 325 kts 66°
2026-05-08 19:18 -41.14562 -70.85958 12654 ft 346 kts 67°
2026-05-08 19:18 -41.13396 -70.83164 13606 ft 348 kts 66°
2026-05-08 19:18 -41.12221 -70.80328 14389 ft 354 kts 66°
2026-05-08 19:18 -41.11027 -70.77441 15182 ft 359 kts 66°
2026-05-08 19:19 -41.09817 -70.74524 16063 ft 363 kts 66°
2026-05-08 19:19 -41.08587 -70.71563 16959 ft 368 kts 66°
2026-05-08 19:19 -41.07345 -70.68576 17825 ft 373 kts 66°
2026-05-08 19:19 -41.06082 -70.65548 18672 ft 377 kts 66°
2026-05-08 19:20 -41.04802 -70.62477 19322 ft 385 kts 67°
2026-05-08 19:20 -41.03935 -70.60395 19676 ft 392 kts 67°
2026-05-08 19:20 -41.02144 -70.56105 20433 ft 403 kts 69°
2026-05-08 19:20 -41.00789 -70.52868 21116 ft 410 kts 69°
2026-05-08 19:21 -40.99397 -70.49546 21774 ft 415 kts 71°
2026-05-08 19:21 -40.97985 -70.46176 22349 ft 421 kts 72°
2026-05-08 19:21 -40.96735 -70.42682 22867 ft 418 kts 81°
2026-05-08 19:21 -40.95810 -70.39025 23531 ft 417 kts 86°
2026-05-08 19:22 -40.94998 -70.35323 24141 ft 420 kts 87°
2026-05-08 19:22 -40.94204 -70.31578 24649 ft 424 kts 89°
2026-05-08 19:22 -40.93451 -70.27783 25276 ft 431 kts 87°
2026-05-08 19:22 -40.92615 -70.23980 25825 ft 432 kts 88°
2026-05-08 19:23 -40.91720 -70.20126 26205 ft 443 kts 85°
2026-05-08 19:23 -40.90793 -70.16289 26684 ft 445 kts 84°
2026-05-08 19:23 -40.89876 -70.12369 27232 ft 445 kts 85°
2026-05-08 19:23 -40.88991 -70.08427 27609 ft 449 kts 86°
2026-05-08 19:24 -40.88123 -70.04430 27995 ft 453 kts 87°
2026-05-08 19:24 -40.87217 -70.00401 28464 ft 458 kts 86°
2026-05-08 19:24 -40.86271 -69.96369 28870 ft 463 kts 86°
2026-05-08 19:24 -40.85303 -69.92291 29286 ft 467 kts 86°
2026-05-08 19:25 -40.84337 -69.88184 29824 ft 469 kts 88°
2026-05-08 19:25 -40.83405 -69.84051 30241 ft 472 kts 87°
2026-05-08 19:25 -40.82402 -69.79871 30683 ft 481 kts 85°
2026-05-08 19:25 -40.81340 -69.75686 31100 ft 482 kts 86°
2026-05-08 19:26 -40.80360 -69.71524 31437 ft 481 kts 87°
2026-05-08 19:26 -40.79396 -69.67287 31705 ft 484 kts 86°
2026-05-08 19:26 -40.78405 -69.63039 31946 ft 485 kts 86°
2026-05-08 19:26 -40.77407 -69.58766 32305 ft 488 kts 84°
2026-05-08 19:27 -40.76349 -69.54499 32775 ft 487 kts 85°
2026-05-08 19:27 -40.75348 -69.50251 33312 ft 481 kts 85°
2026-05-08 19:27 -40.74361 -69.46029 33718 ft 483 kts 85°
2026-05-08 19:27 -40.73411 -69.41776 34025 ft 483 kts 85°
2026-05-08 19:28 -40.72423 -69.37579 34316 ft 488 kts 84°
2026-05-08 19:28 -40.71439 -69.33332 34832 ft 483 kts 84°
2026-05-08 19:28 -40.70369 -69.29123 35229 ft 486 kts 82°
2026-05-08 19:28 -40.69268 -69.24914 35523 ft 484 kts 83°
2026-05-08 19:29 -40.68256 -69.20684 35747 ft 483 kts 85°
2026-05-08 19:29 -40.67252 -69.16438 36117 ft 487 kts 83°
2026-05-08 19:29 -40.66225 -69.12209 36705 ft 481 kts 81°
2026-05-08 19:29 -40.65169 -69.08031 37086 ft 481 kts 82°
2026-05-08 19:30 -40.64171 -69.03871 37197 ft 485 kts 82°
2026-05-08 19:30 -40.62154 -68.95342 37186 ft 489 kts 82°
2026-05-08 19:31 -40.60089 -68.86829 37176 ft 484 kts 82°
2026-05-08 19:31 -40.58025 -68.78449 37178 ft 482 kts 81°
2026-05-08 19:32 -40.55944 -68.69958 37157 ft 492 kts 81°
2026-05-08 19:32 -40.53822 -68.61338 37151 ft 497 kts 81°
2026-05-08 19:33 -40.51689 -68.52743 37170 ft 498 kts 81°
2026-05-08 19:33 -40.49540 -68.44101 37129 ft 497 kts 79°
2026-05-08 19:34 -40.47393 -68.35498 37120 ft 495 kts 79°
2026-05-08 19:34 -40.45247 -68.26922 37113 ft 493 kts 79°
2026-05-08 19:35 -40.43101 -68.18364 37143 ft 492 kts 79°
2026-05-08 19:35 -40.40967 -68.09894 37120 ft 491 kts 78°
2026-05-08 19:36 -40.38816 -68.01381 37113 ft 491 kts 78°
2026-05-08 19:36 -40.36657 -67.92891 37091 ft 490 kts 78°
2026-05-08 19:37 -40.34492 -67.84416 37100 ft 490 kts 78°
2026-05-08 19:37 -40.32327 -67.75952 37087 ft 490 kts 78°
2026-05-08 19:38 -40.30159 -67.67495 37089 ft 489 kts 78°
2026-05-08 19:38 -40.27997 -67.59091 37081 ft 490 kts 78°
2026-05-08 19:39 -40.25814 -67.50641 37088 ft 490 kts 77°
2026-05-08 19:39 -40.23625 -67.42194 37074 ft 489 kts 77°
2026-05-08 19:40 -40.21432 -67.33762 37062 ft 489 kts 77°
2026-05-08 19:40 -40.19228 -67.25327 37060 ft 489 kts 77°
2026-05-08 19:41 -40.17022 -67.16905 37067 ft 490 kts 77°
2026-05-08 19:41 -40.14823 -67.08541 37050 ft 489 kts 76°
2026-05-08 19:42 -40.12608 -67.00137 37050 ft 488 kts 76°
2026-05-08 19:42 -40.10391 -66.91762 37052 ft 488 kts 76°
2026-05-08 19:43 -40.08164 -66.83377 37042 ft 488 kts 76°
2026-05-08 19:43 -40.05932 -66.74999 37037 ft 487 kts 76°
2026-05-08 19:44 -40.03699 -66.66649 37038 ft 487 kts 76°
2026-05-08 19:44 -40.01481 -66.58367 37032 ft 486 kts 76°
2026-05-08 19:45 -39.99238 -66.50039 37031 ft 486 kts 75°
2026-05-08 19:45 -39.96991 -66.41713 37020 ft 486 kts 75°
2026-05-08 19:46 -39.94743 -66.33416 37021 ft 485 kts 75°
2026-05-08 19:46 -39.91375 -66.21034 37017 ft 485 kts 75°
2026-05-08 19:47 -39.89109 -66.12740 37005 ft 486 kts 75°
2026-05-08 19:47 -39.86838 -66.04451 36996 ft 486 kts 75°
2026-05-08 19:48 -39.84564 -65.96180 36982 ft 485 kts 75°
2026-05-08 19:48 -39.82279 -65.87892 36991 ft 486 kts 75°
2026-05-08 19:49 -39.79991 -65.79621 36962 ft 486 kts 74°
2026-05-08 19:49 -39.77699 -65.71359 36974 ft 486 kts 74°
2026-05-08 19:50 -39.75410 -65.63139 36961 ft 486 kts 74°
2026-05-08 19:50 -39.73097 -65.54858 36948 ft 487 kts 73°
2026-05-08 19:51 -39.70780 -65.46591 36939 ft 487 kts 73°
2026-05-08 19:51 -39.68459 -65.38337 36940 ft 486 kts 73°
2026-05-08 19:52 -39.66135 -65.30099 36931 ft 486 kts 73°
2026-05-08 19:52 -39.63807 -65.21869 36918 ft 485 kts 73°
2026-05-08 19:53 -39.61476 -65.13654 36921 ft 485 kts 73°
2026-05-08 19:53 -39.59136 -65.05438 36908 ft 485 kts 73°
2026-05-08 19:54 -39.56795 -64.97242 36904 ft 485 kts 72°
2026-05-08 19:54 -39.54465 -64.89110 36897 ft 484 kts 72°
2026-05-08 19:55 -39.52116 -64.80932 36884 ft 484 kts 72°
2026-05-08 19:55 -39.49764 -64.72770 36879 ft 483 kts 72°
2026-05-08 19:56 -39.47792 -64.65946 36879 ft 483 kts 72°
2026-05-08 19:56 -39.45445 -64.57851 36866 ft 483 kts 72°
2026-05-08 19:57 -39.43081 -64.49719 36868 ft 483 kts 72°
2026-05-08 19:57 -39.40713 -64.41591 36855 ft 482 kts 72°
2026-05-08 19:58 -39.38340 -64.33470 36847 ft 482 kts 72°
2026-05-08 19:58 -39.35956 -64.25338 36850 ft 484 kts 72°
2026-05-08 19:59 -39.33563 -64.17201 36159 ft 485 kts 71°
2026-05-08 19:59 -39.32371 -64.13162 35478 ft 480 kts 71°
2026-05-08 19:59 -39.31192 -64.09168 34655 ft 480 kts 71°
2026-05-08 20:00 -39.30008 -64.05167 34034 ft 474 kts 71°
2026-05-08 20:00 -39.28827 -64.01179 33161 ft 475 kts 71°
2026-05-08 20:00 -39.27652 -63.97217 32517 ft 469 kts 70°
2026-05-08 20:00 -39.26492 -63.93310 31897 ft 464 kts 70°
2026-05-08 20:01 -39.25341 -63.89441 31318 ft 458 kts 69°
2026-05-08 20:01 -39.24206 -63.85624 30742 ft 453 kts 69°
2026-05-08 20:01 -39.23079 -63.81842 30182 ft 449 kts 68°
2026-05-08 20:01 -39.21964 -63.78107 29577 ft 445 kts 68°
2026-05-08 20:02 -39.20853 -63.74403 28937 ft 440 kts 69°
2026-05-08 20:02 -39.19761 -63.70758 28356 ft 433 kts 68°
2026-05-08 20:02 -39.18683 -63.67164 27786 ft 427 kts 69°
2026-05-08 20:02 -39.17634 -63.63668 27241 ft 421 kts 69°
2026-05-08 20:03 -39.16583 -63.60173 26677 ft 415 kts 70°
2026-05-08 20:03 -39.15547 -63.56730 26131 ft 409 kts 70°
2026-05-08 20:03 -39.14521 -63.53328 25576 ft 404 kts 70°
2026-05-08 20:03 -39.13510 -63.49977 25033 ft 399 kts 71°
2026-05-08 20:04 -39.12511 -63.46669 24489 ft 394 kts 71°
2026-05-08 20:04 -39.11524 -63.43406 23955 ft 389 kts 71°
2026-05-08 20:04 -39.10548 -63.40181 23444 ft 384 kts 71°
2026-05-08 20:04 -39.09584 -63.36999 22827 ft 380 kts 71°
2026-05-08 20:05 -39.08632 -63.33860 22296 ft 374 kts 72°
2026-05-08 20:05 -39.07691 -63.30761 21760 ft 368 kts 72°
2026-05-08 20:05 -39.06763 -63.27714 21253 ft 363 kts 72°
2026-05-08 20:05 -39.05846 -63.24704 20750 ft 359 kts 72°
2026-05-08 20:06 -39.04943 -63.21746 20512 ft 353 kts 72°
2026-05-08 20:06 -39.04047 -63.18815 20236 ft 353 kts 72°
2026-05-08 20:06 -39.03146 -63.15867 19721 ft 353 kts 72°
2026-05-08 20:06 -39.02251 -63.12942 19218 ft 350 kts 73°
2026-05-08 20:07 -39.01361 -63.10035 18714 ft 348 kts 72°
2026-05-08 20:07 -39.00487 -63.07181 18210 ft 346 kts 72°
2026-05-08 20:07 -38.99603 -63.04311 17649 ft 345 kts 71°
2026-05-08 20:07 -38.98329 -63.01683 17077 ft 351 kts 52°
2026-05-08 20:08 -38.96631 -62.99444 16575 ft 349 kts 48°
2026-05-08 20:08 -38.94879 -62.97301 16095 ft 346 kts 47°
2026-05-08 20:08 -38.93135 -62.95194 15627 ft 343 kts 47°
2026-05-08 20:08 -38.91396 -62.93102 15173 ft 339 kts 47°
2026-05-08 20:09 -38.89682 -62.91045 14729 ft 336 kts 46°
2026-05-08 20:09 -38.87979 -62.89004 14304 ft 333 kts 46°
2026-05-08 20:09 -38.86297 -62.86986 13877 ft 329 kts 46°
2026-05-08 20:09 -38.84653 -62.85013 13471 ft 326 kts 46°
2026-05-08 20:10 -38.82988 -62.83016 13056 ft 329 kts 46°
2026-05-08 20:10 -38.81309 -62.81003 12672 ft 333 kts 46°
2026-05-08 20:10 -38.79603 -62.78955 12301 ft 338 kts 46°
2026-05-08 20:10 -38.77876 -62.76889 11943 ft 338 kts 46°
2026-05-08 20:11 -38.76169 -62.74859 11620 ft 330 kts 47°
2026-05-08 20:11 -38.74499 -62.72893 11356 ft 321 kts 47°
2026-05-08 20:11 -38.72858 -62.70983 11119 ft 318 kts 46°
2026-05-08 20:11 -38.71197 -62.69060 10877 ft 327 kts 46°
2026-05-08 20:12 -38.69487 -62.67081 10636 ft 333 kts 46°
2026-05-08 20:12 -38.68015 -62.64893 10558 ft 316 kts 69°
2026-05-08 20:12 -38.67260 -62.62369 10494 ft 296 kts 76°
2026-05-08 20:12 -38.66572 -62.59943 10404 ft 283 kts 76°
2026-05-08 20:13 -38.65894 -62.57616 10147 ft 277 kts 76°
2026-05-08 20:13 -38.65214 -62.55315 9787 ft 275 kts 76°
2026-05-08 20:13 -38.64519 -62.53052 9382 ft 270 kts 75°
2026-05-08 20:13 -38.63837 -62.50792 8472 ft 279 kts 75°
2026-05-08 20:14 -38.63123 -62.48453 7737 ft 283 kts 75°
2026-05-08 20:14 -38.62412 -62.46148 7128 ft 278 kts 75°
2026-05-08 20:14 -38.61691 -62.43840 6475 ft 278 kts 75°
2026-05-08 20:14 -38.60989 -62.41537 5613 ft 282 kts 77°
2026-05-08 20:15 -38.60290 -62.39139 4688 ft 293 kts 74°
2026-05-08 20:15 -38.59515 -62.36707 3962 ft 294 kts 73°
2026-05-08 20:15 -38.58743 -62.34285 3369 ft 292 kts 72°
2026-05-08 20:15 -38.57993 -62.31914 3183 ft 282 kts 73°
2026-05-08 20:16 -38.57400 -62.29621 3040 ft 261 kts 78°
2026-05-08 20:16 -38.56926 -62.27477 2985 ft 240 kts 79°
2026-05-08 20:16 -38.56485 -62.25507 2953 ft 220 kts 79°
2026-05-08 20:16 -38.56097 -62.23718 2936 ft 196 kts 89°
2026-05-08 20:17 -38.56341 -62.22240 2888 ft 163 kts 143°
2026-05-08 20:17 -38.57228 -62.21545 2934 ft 145 kts 165°
2026-05-08 20:17 -38.58147 -62.21034 2771 ft 140 kts 167°
2026-05-08 20:17 -38.59012 -62.20561 2584 ft 129 kts 171°
2026-05-08 20:18 -38.59841 -62.20183 2412 ft 124 kts 174°
2026-05-08 20:18 -38.60671 -62.19850 2273 ft 126 kts 175°
2026-05-08 20:18 -38.61517 -62.19526 2249 ft 131 kts 176°
2026-05-08 20:18 -38.62388 -62.19198 2200 ft 129 kts 175°
2026-05-08 20:19 -38.63248 -62.18876 2074 ft 129 kts 176°
2026-05-08 20:19 -38.64108 -62.18556 1896 ft 128 kts 176°
2026-05-08 20:19 -38.64970 -62.18235 1724 ft 129 kts 177°
2026-05-08 20:19 -38.65836 -62.17927 1541 ft 131 kts 171°
2026-05-08 20:20 -38.66705 -62.17577 1360 ft 129 kts 175°
2026-05-08 20:20 -38.67571 -62.17248 1140 ft 130 kts 175°
2026-05-08 20:20 -38.68452 -62.16936 955 ft 133 kts 171°
2026-05-08 20:20 -38.69357 -62.16599 763 ft 138 kts 171°
2026-05-08 20:21 -38.70281 -62.16250 588 ft 142 kts 171°
2026-05-08 20:21 -38.71245 -62.15897 392 ft 145 kts 172°
2026-05-08 20:21 -38.72197 -62.15535 271 ft 133 kts 173°
2026-05-08 20:21 -38.73001 -62.15248 253 ft 101 kts 163°
2026-05-08 20:22 -38.73459 -62.15078 258 ft 51 kts 163°
2026-05-08 20:22 -38.73664 -62.15008 257 ft 13 kts 177°
2026-05-08 20:22 -38.73714 -62.14968 257 ft 1 kts 89°
2026-05-08 20:22 -38.73708 -62.14960 257 ft 2 kts 39°
2026-05-08 20:23 -38.73674 -62.14977 257 ft 6 kts 334°
2026-05-08 20:23 -38.73637 -62.14999 257 ft 6 kts 338°
2026-05-08 20:23 -38.73598 -62.15019 257 ft 6 kts 338°
2026-05-08 20:23 -38.73550 -62.15038 257 ft 10 kts 344°
2026-05-08 20:24 -38.73463 -62.15068 258 ft 15 kts 344°
2026-05-08 20:24 -38.73344 -62.15112 256 ft 20 kts 343°
2026-05-08 20:24 -38.73213 -62.15162 254 ft 19 kts 343°
2026-05-08 20:24 -38.73086 -62.15209 253 ft 19 kts 344°
2026-05-08 20:25 -38.72963 -62.15255 253 ft 18 kts 343°
2026-05-08 20:25 -38.72844 -62.15300 254 ft 17 kts 343°
2026-05-08 20:25 -38.72729 -62.15342 254 ft 17 kts 343°
2026-05-08 20:25 -38.72620 -62.15383 255 ft 16 kts 343°
2026-05-08 20:26 -38.72514 -62.15423 257 ft 16 kts 343°
2026-05-08 20:26 -38.72412 -62.15461 257 ft 15 kts 343°
2026-05-08 20:26 -38.72314 -62.15498 257 ft 14 kts 343°
2026-05-08 20:26 -38.72220 -62.15533 257 ft 14 kts 344°
2026-05-08 20:27 -38.72130 -62.15565 256 ft 13 kts 344°
2026-05-08 20:27 -38.72048 -62.15610 255 ft 13 kts 323°
2026-05-08 20:27 -38.71990 -62.15693 255 ft 12 kts 314°
2026-05-08 20:27 -38.71930 -62.15771 255 ft 12 kts 314°
2026-05-08 20:28 -38.71872 -62.15845 255 ft 12 kts 315°
2026-05-08 20:28 -38.71837 -62.15937 256 ft 11 kts 275°
2026-05-08 20:28 -38.71829 -62.15998 256 ft 4 kts 318°
2026-05-08 20:28 -38.71803 -62.16010 256 ft 4 kts 348°
2026-05-08 20:29 -38.71778 -62.16016 256 ft 4 kts 347°
2026-05-08 20:29 -38.71753 -62.16025 256 ft 4 kts 345°
2026-05-08 20:29 -38.71719 -62.16037 256 ft 5 kts 343°
2026-05-08 20:29 -38.71683 -62.16051 256 ft 6 kts 342°
2026-05-08 20:30 -38.71653 -62.16099 256 ft 8 kts 283°
2026-05-08 20:30 -38.71646 -62.16173 256 ft 8 kts 277°
2026-05-08 20:30 -38.71639 -62.16243 256 ft 5 kts 277°
2026-05-08 20:30 -38.71643 -62.16280 256 ft 4 kts 258°
2026-05-08 20:31 -38.71643 -62.16299 256 ft 0 kts 276°
2026-05-08 20:31 -38.71642 -62.16307 256 ft 1 kts 275°
2026-05-08 20:31 -38.71642 -62.16310 256 ft 0 kts 275°